Regional Weather Roundup
Issued by NWS

Home | Current Version | Previous Version | Text Only | Print | Product List | Glossary Off
Versions: 1 2 3 4 5 6 7 8 9 10 11 12 13 14 15 16 17 18 19 20 21 22 23 24 25 26 27 28 29 30 31 32 33 34 35 36 37 38 39 40 41 42 43 44 45 46 47 48 49 50

646
ASUS45 KSLC 221410
RWRUT

UTAH REGIONAL WEATHER ROUNDUP
NATIONAL WEATHER SERVICE SALT LAKE CITY UT
700 AM MST WED NOV 22 2017

UTZ001>011-023>025-221500-

NORTHERN UTAH

CITY           SKY/WX    TMP DP  RH WIND       PRES   REMARKS
BRIGHAM CITY   MOCLDY    43  39  83 CALM      30.41R
DUGWAY         PTCLDY    31  29  95 S3        30.40S
HILL AFB       PTCLDY    46  37  70 SE10      30.40R
LOGAN          MOCLDY    44  41  89 SE3       30.39R
OGDEN          CLEAR     45  38  76 S9        30.39R
SALT LAKE CITY MOCLDY    47  39  74 SE9       30.39S
TOOELE VALLEY  PTCLDY    43  36  75 S5        30.40R
WENDOVER       CLEAR     37  33  85 CALM      30.41R
HEBER CITY       N/A     32  30  93 E3        30.46F
WEST JORDAN    CLEAR     46  38  73 S7        30.41S

$$

UTZ011>015-024>027-221500-

CENTRAL/NORTHEAST UTAH

CITY           SKY/WX    TMP DP  RH WIND       PRES   REMARKS
PROVO AIRPORT  MOCLDY    37  35  92 CALM      30.45S
MOAB/CANYONLAN MOCLDY    31  11  43 CALM      30.43R
DELTA          PTCLDY    34  30  86 SE3       30.43S
PRICE          CLEAR     33  27  78 E5        30.45R WCI  29
RICHFIELD      CLEAR     28  28 100 CALM      30.49S
ROOSEVELT      CLOUDY    32  27  80 CALM      30.45R
VERNAL         CLOUDY    34  29  82 W5        30.43R WCI  30

$$

UTZ013>016-019>022-027-221500-

SOUTHERN UTAH

CITY           SKY/WX    TMP DP  RH WIND       PRES   REMARKS
BRYCE CANYON   PTCLDY    28  27  96 VRB3      30.51R
CEDAR CITY     PTCLDY    32  29  88 CALM      30.43R
MILFORD        PTCLDY    29  27  92 SE5       30.43R WCI  24
ST GEORGE      SUNNY     42  18  37 CALM      30.36R
HANKSVILLE     MOCLDY    28  10  47 CALM      30.48R
KANAB          CLEAR     36  28  75 NE3       30.43R
BLANDING         N/A     40  30  67 N6        30.49R

$$

REGIONAL REPORTS     COLORADO/ARIZONA

CITY           SKY/WX    TMP DP  RH WIND       PRES   REMARKS
CRAIG, CO      CLOUDY    34  31  88 NE5       30.45S WCI  30
GRAND JUNCTION CLOUDY    32  26  78 E6        30.45R WCI  26
RIFLE, CO      CLOUDY    30  29  96 E5        30.49R WCI  25
MONTROSE, CO   CLOUDY    30  26  85 SE8       30.48S WCI  22
CORTEZ, CO     CLOUDY    29  22  75 NE7       30.42R WCI  22
COLORADO CITY    N/A     30  23  74 SE3       30.42R
PAGE, AZ       MOCLDY    42  24  49 W3        30.40R HAZE
GRAND CANYON   PTCLDY    26  20  77 CALM      30.45R
KINGMAN, AZ    CLEAR     48  19  31 NE8       30.29R
FLAGSTAFF, AZ  PTCLDY    33  25  72 E3        30.45R

$$

REGIONAL REPORTS    NEVADA/IDAHO/WYOMING

CITY           SKY/WX    TMP DP  RH WIND       PRES   REMARKS
LAS VEGAS, NV  PTCLDY    54  33  45 SW3       30.26R
ELY, NY        CLEAR     29  26  89 S13       30.47R WCI  19
ELKO, NV       FOG       33  31  92 NE3       30.42R VSB 1/4
POCATELLO, ID  CLOUDY    42  42 100 CALM      30.35S
BURLEY, ID     CLOUDY    44  41  89 CALM      30.33R
FORT BRIDGER,    N/A     42  37  82 SW7       30.47R
EVANSTON, WY   CLOUDY    39  35  86 SW10      30.45S WCI  32
ROCK SPRINGS,  CLOUDY    42  35  76 W20       30.40R
KEMMERER, WY   CLOUDY    37  34  87 W10       30.44R WCI  30

$$




USA.gov is the U.S. government's official web portal to all federal, state and local government web resources and services.